Vorticity
13 13 12 9 8 10 9 8 7 6 8 8 9 8 8 7 7 14 17 14 8 3 8 17 20 26 31 27 24 21 13 11 11 5 -3 -4 2 5 5 0 -4 -1 1 14 24 16 11 9 7 4 -2 9 16 13 23 24 21 14 -2 -2 3 8 13 6 8 13 4 6 17 17 15 16 10 2 2 8 12 10 10 12 9 6 8 8 7 7
14 15 12 8 9 11 10 11 6 4 7 6 7 7 7 9 10 18 28 26 19 12 6 10 18 24 15 -0 13 30 18 8 11 4 -2 -1 2 6 7 1 -3 1 8 22 22 7 7 10 10 6 -4 7 13 4 17 18 2 0 0 1 3 8 14 10 11 14 11 17 24 18 9 8 8 5 10 14 12 12 12 10 7 7 9 7 7 8
16 17 11 8 10 10 10 11 9 7 7 7 9 6 5 9 14 24 22 5 9 20 13 10 15 8 -8 -19 1 31 23 6 7 4 3 4 5 8 6 3 2 2 12 20 11 -1 1 5 8 8 1 5 6 1 7 1 -9 1 10 11 12 11 11 11 7 12 25 14 -2 2 6 6 13 15 15 14 12 11 8 6 7 8 8 8 7 6
13 13 9 8 9 10 11 10 10 9 9 11 10 7 11 13 17 28 18 -2 5 16 8 8 10 -1 -8 -9 3 30 24 3 3 4 7 7 5 16 16 6 4 5 9 9 3 -2 -6 -5 4 8 6 5 4 4 6 6 6 10 9 8 11 10 10 12 6 9 15 -7 -16 4 7 4 13 14 12 11 8 6 4 6 8 7 7 7 6 6
11 10 10 10 9 9 10 11 11 9 9 12 9 9 19 18 21 25 9 3 12 6 -2 2 3 -1 4 -0 -1 27 27 -2 -3 3 8 8 -4 6 17 8 5 6 6 0 -6 -4 -4 1 10 11 9 5 3 6 5 7 9 6 8 9 9 11 12 13 11 9 6 -5 -0 11 6 5 10 10 10 6 3 4 5 8 6 6 7 6 7 8
9 9 10 10 12 11 9 10 12 11 10 11 9 14 26 22 21 18 1 8 17 1 -4 6 9 3 6 5 -4 19 33 6 -9 -4 5 11 1 1 6 2 1 0 -1 -2 -0 8 8 8 14 12 8 7 6 9 8 7 9 7 9 9 9 11 11 12 11 6 5 8 11 10 6 7 8 10 9 3 3 5 5 4 3 4 7 7 9 8
8 9 10 9 11 13 13 11 9 9 9 11 12 18 31 22 9 13 11 13 17 11 8 7 13 12 9 11 -2 7 35 14 -12 -5 2 2 0 0 2 -1 -3 -3 1 5 7 9 1 -0 13 14 11 13 11 11 14 13 10 10 13 11 8 9 8 9 8 6 10 12 10 10 9 7 10 13 8 4 5 4 2 2 3 6 8 8 9 9
9 8 11 11 10 10 13 13 9 9 8 10 13 19 34 19 -4 9 17 10 9 15 20 9 5 15 13 8 -3 1 28 21 -2 -1 -3 -8 -4 0 1 -1 -2 2 6 5 2 1 -3 -1 11 14 16 17 11 8 10 12 12 10 17 18 9 9 14 11 8 10 11 11 8 7 7 7 11 11 8 7 4 1 2 3 6 8 8 8 10 11
11 9 11 12 11 9 10 11 11 14 16 21 21 19 27 13 -5 6 9 7 10 1 4 10 3 7 9 6 7 7 15 21 16 8 -3 -5 0 4 4 3 5 9 4 -0 1 4 8 12 8 8 13 15 12 9 7 19 35 27 19 20 12 8 13 10 8 12 12 12 10 6 7 9 11 12 11 10 7 8 11 10 8 8 8 10 10 10
12 10 7 6 9 11 13 15 12 11 17 29 26 18 20 7 -4 7 3 5 16 -3 -12 -0 1 1 1 1 9 12 7 7 8 5 -2 -3 2 5 7 6 6 6 2 2 6 9 17 21 13 6 9 11 11 13 6 6 25 30 20 19 18 14 15 12 10 11 10 12 10 8 8 9 13 14 8 5 8 13 14 11 8 7 9 11 9 8
13 11 7 5 6 8 11 11 8 7 15 25 23 18 20 9 -5 -1 3 4 8 2 -5 -3 1 4 2 -3 -7 -6 -3 -8 -10 -3 -2 0 7 4 -0 2 4 4 6 7 9 13 16 16 11 8 12 15 14 19 12 -8 0 25 30 22 19 15 10 6 9 14 15 16 14 12 10 9 14 7 -7 -6 4 6 6 6 6 8 11 11 8 8
11 10 12 12 8 5 5 3 0 8 18 17 16 17 19 15 -0 -12 -4 7 5 2 1 0 5 6 4 8 2 -7 -2 -2 -1 8 5 4 8 3 1 6 5 1 3 7 10 14 16 15 13 12 12 14 12 14 15 8 10 19 19 14 12 11 9 10 20 26 22 17 14 14 15 18 17 -1 -16 -6 5 5 3 3 6 10 11 11 9 6
12 11 11 10 8 7 12 12 4 5 12 11 14 20 20 16 5 -8 -5 4 5 4 1 -1 8 10 8 21 30 22 15 12 20 29 19 9 8 6 7 6 3 4 3 7 13 15 17 17 13 10 12 15 15 14 14 15 14 8 9 15 12 9 12 13 12 13 11 9 7 7 10 14 11 -2 -6 4 11 10 9 8 12 15 12 10 8 5
14 12 8 5 8 10 16 25 18 6 10 18 19 20 23 19 6 -3 -5 -6 -1 6 3 -2 4 10 8 13 24 30 24 12 16 26 19 13 15 11 8 4 2 4 4 7 10 9 12 12 7 6 11 14 14 14 10 10 13 14 20 28 21 12 13 10 2 1 7 9 5 3 4 5 5 2 3 7 7 5 3 3 10 15 12 7 5 5
12 12 10 9 9 -0 -1 16 22 9 5 14 15 10 18 23 12 -0 -6 -6 -2 0 3 3 -1 -3 -4 -5 -2 11 24 14 4 9 8 6 12 10 6 9 9 8 14 20 14 7 9 9 6 8 12 14 14 12 9 11 17 10 5 17 25 19 15 12 5 3 8 9 7 7 7 6 4 4 4 4 3 2 1 3 9 14 12 5 2 5
8 11 10 9 10 3 -2 13 26 15 2 6 12 9 11 18 19 14 9 11 8 -3 0 9 6 -1 -8 -9 -5 3 19 18 4 1 1 -1 4 5 2 6 12 13 19 27 21 12 10 9 11 15 14 12 11 9 9 14 18 9 -1 7 15 10 5 1 -1 2 5 7 9 9 7 6 6 5 5 5 5 5 8 11 11 11 9 4 1 3
4 6 8 7 13 15 9 13 23 16 4 9 18 15 11 12 15 15 14 17 14 6 10 17 19 18 6 -2 4 10 16 19 11 1 -2 -1 1 4 8 7 5 0 2 13 18 12 9 11 16 19 14 9 10 12 11 13 17 17 14 13 10 7 5 2 4 10 11 9 7 6 4 4 3 2 5 8 11 11 9 11 13 10 7 3 1 -1
8 5 6 9 11 11 5 6 15 11 3 12 18 12 13 18 18 11 2 6 12 8 10 15 17 22 19 12 12 15 13 12 14 8 2 5 3 2 8 8 1 -2 -1 4 5 3 8 14 15 16 13 9 7 9 10 11 13 14 15 15 13 11 10 9 11 11 9 8 5 2 1 2 3 4 7 11 16 16 9 8 11 9 5 4 3 -2
10 9 7 6 5 6 5 6 13 13 5 8 11 7 9 15 21 17 3 3 12 7 0 5 9 10 10 9 8 11 9 6 16 20 12 11 10 7 10 10 6 8 8 6 2 1 6 9 10 13 14 11 7 6 9 11 9 9 10 10 9 8 6 7 7 7 7 6 4 3 4 5 4 3 5 8 12 17 11 7 11 10 8 8 7 4
6 7 7 6 3 3 5 5 10 13 6 3 6 8 6 4 11 18 10 5 9 11 7 1 2 7 8 5 5 7 7 6 13 17 12 10 9 7 7 7 7 8 8 7 7 6 4 4 7 9 10 10 10 11 15 11 5 5 9 6 -0 -0 4 5 3 4 6 6 5 7 8 7 3 0 1 4 8 13 11 9 13 13 8 7 8 8
6 4 4 6 4 2 4 4 7 10 8 6 5 5 4 0 4 10 10 7 3 8 16 10 2 5 7 5 6 6 8 9 6 5 10 14 11 7 6 7 9 11 9 7 6 7 6 5 6 8 11 10 9 14 19 10 -1 1 8 6 -4 -7 3 10 7 2 2 5 7 9 8 3 -0 -0 -0 3 8 10 8 6 5 2 -0 2 8 13
6 6 4 5 2 2 3 4 9 12 11 8 5 2 0 1 5 5 5 7 4 2 9 13 9 6 5 5 5 4 6 8 5 5 10 13 12 14 17 16 12 10 10 11 11 11 11 10 8 5 4 3 3 9 11 -1 -11 -6 5 8 2 -3 -1 8 12 8 2 2 4 6 7 3 1 4 3 4 7 7 6 4 -0 -3 -3 3 13 19
4 5 7 5 2 2 3 3 7 13 10 5 5 3 0 2 8 9 4 3 5 4 5 7 7 7 9 7 6 7 5 6 8 5 1 -1 2 10 13 10 7 6 7 10 13 15 16 17 17 9 1 0 3 5 1 -10 -11 1 7 6 6 5 3 7 14 10 1 4 9 10 9 7 4 5 8 10 9 6 6 6 1 -1 3 14 23 22
4 6 10 9 3 1 4 4 6 13 13 7 5 4 1 2 4 7 7 4 3 4 5 6 4 6 9 8 12 13 6 11 22 16 5 1 1 4 3 0 4 7 7 6 4 6 10 14 20 17 8 9 13 9 1 -2 6 14 9 4 9 11 6 8 14 9 1 6 13 12 9 12 13 10 9 9 8 8 8 7 5 5 11 21 23 14
3 6 10 12 7 1 0 1 7 16 13 4 2 4 3 2 1 3 5 5 6 6 4 5 3 2 4 3 8 9 5 18 31 20 10 9 8 9 8 6 10 9 9 9 4 5 11 15 19 16 11 19 22 9 3 11 20 18 8 6 13 11 4 5 12 12 4 1 7 10 5 5 11 14 11 9 10 12 14 12 9 9 14 18 13 6
4 2 5 11 11 7 2 -2 1 8 6 3 8 8 3 3 2 3 4 3 6 9 8 9 6 4 5 2 3 5 4 9 14 9 8 7 4 5 4 5 9 8 8 10 10 16 21 19 14 5 2 10 7 -5 2 15 20 22 24 17 6 7 16 17 15 16 10 1 5 15 11 -1 -3 6 12 12 11 13 19 20 14 13 18 15 8 4
16 5 -0 5 9 9 7 2 1 3 1 6 19 13 1 2 4 1 2 3 2 3 6 9 7 8 11 10 8 7 4 1 -2 0 8 7 1 2 4 8 10 7 7 6 9 19 20 14 10 9 13 19 16 14 22 26 20 24 34 21 -2 3 21 18 14 19 15 7 9 16 20 12 2 6 14 15 14 12 12 17 17 17 18 12 5 5
19 13 2 0 5 7 9 6 3 2 -1 1 19 23 6 -1 3 2 1 6 7 6 7 6 5 4 4 5 6 3 10 20 11 -1 2 8 9 8 8 10 9 9 11 8 10 15 11 9 15 24 30 31 32 34 25 16 13 12 20 24 15 16 24 22 22 19 9 11 19 19 25 24 9 7 15 18 20 14 5 9 16 15 12 7 4 5
9 19 21 10 2 3 9 13 10 8 5 -2 8 23 18 6 5 5 1 2 5 7 7 9 12 10 2 2 7 3 4 10 2 -10 -8 0 3 4 7 9 10 11 11 13 24 30 25 25 27 26 19 9 11 15 4 -1 9 12 18 26 20 15 19 23 20 8 1 14 19 13 20 23 7 2 8 10 16 16 7 4 7 7 9 8 5 4
9 23 43 37 18 5 2 5 8 12 15 11 4 7 15 15 11 10 8 1 -2 -0 0 2 9 13 9 7 12 12 5 0 -4 -4 0 2 1 1 3 3 3 9 17 27 35 34 28 20 5 -5 -5 -3 2 6 0 -2 5 12 20 18 1 -5 6 15 14 6 3 7 8 12 21 20 10 8 9 7 13 18 13 3 -3 0 9 11 8 7
15 15 31 37 29 21 14 7 7 11 13 17 16 9 9 10 5 8 13 7 0 1 -0 -2 -0 3 5 6 6 7 7 8 10 11 11 13 13 11 9 5 1 10 23 24 8 -5 -3 -4 -14 -12 5 15 14 11 9 7 1 -1 5 3 -7 -7 5 14 16 11 6 4 10 19 18 13 16 16 11 11 15 15 12 7 1 4 14 16 14 10
17 13 14 18 17 25 33 22 14 17 12 6 11 13 12 10 8 11 17 14 9 6 2 -0 0 -2 -3 -3 -3 -1 1 4 8 8 7 8 9 14 18 16 12 13 13 6 -8 -14 -8 -7 -11 -2 13 17 13 8 7 7 5 3 4 2 1 2 5 7 4 0 4 10 16 13 5 12 23 9 -6 5 17 12 9 9 9 14 17 14 13 13
10 16 15 16 18 28 37 23 9 18 21 10 6 10 12 13 13 13 15 14 15 18 13 6 4 5 2 -3 -6 -7 -6 -4 -3 -2 1 3 3 8 11 10 11 11 5 -1 -2 -2 1 -0 -3 3 12 16 14 10 5 2 1 4 4 2 4 6 5 6 4 2 4 4 1 -4 -4 9 16 1 -9 5 16 12 8 10 13 17 18 9 5 10
1 13 16 16 18 26 34 27 16 15 18 17 15 12 9 10 13 13 13 12 13 22 26 18 7 2 5 12 19 17 10 5 6 9 13 10 3 -1 -2 -3 1 6 5 4 5 5 8 10 10 11 12 13 12 10 8 5 1 1 3 2 2 3 2 2 3 6 6 2 -0 1 2 3 2 -1 -0 5 7 5 5 8 7 9 18 15 2 0
-8 1 4 -4 -6 3 12 19 20 14 9 12 17 18 13 10 10 13 15 15 12 15 22 24 19 11 7 10 19 26 25 20 20 25 29 28 23 15 7 5 8 12 12 10 10 12 13 13 17 20 18 18 22 19 12 6 3 3 4 4 4 5 6 5 5 5 5 3 3 4 4 1 0 3 3 3 5 5 3 5 2 2 12 18 14 12
-4 -1 0 -8 -12 -4 2 7 14 17 15 10 7 11 15 12 9 9 11 14 13 11 11 15 19 23 21 6 -10 -6 8 8 1 3 11 19 27 30 25 21 23 25 25 26 27 24 19 19 25 29 23 18 19 22 22 20 15 9 6 5 5 4 5 7 9 7 6 5 4 2 2 3 6 8 5 4 9 8 2 1 3 1 1 4 6 5
7 2 7 8 6 7 8 7 6 8 15 19 13 8 11 15 14 12 12 13 13 11 10 7 6 12 21 15 -4 -11 -5 -3 -8 -2 9 11 12 23 29 23 18 19 20 24 28 25 19 20 20 17 12 6 -1 -3 0 3 1 -1 0 3 4 4 4 5 4 3 4 6 5 6 9 11 11 9 5 2 2 2 -1 1 5 6 5 2 -4 -13
16 9 10 15 15 13 14 14 8 -0 2 15 19 14 13 17 19 16 13 13 13 12 13 12 9 8 11 14 12 6 2 0 -4 -2 8 10 5 8 11 1 -5 -0 -2 -8 -8 -10 -14 -14 -16 -17 -12 -5 -4 -6 -7 -7 -6 -4 -1 1 2 1 2 2 1 1 3 3 2 3 7 6 2 -0 2 3 2 0 2 4 5 6 8 8 5 -1
12 12 13 15 16 14 13 14 14 8 2 3 6 3 1 5 10 14 14 14 14 14 14 15 15 15 13 13 17 22 23 20 13 3 1 2 -2 -5 -5 -11 -13 -7 -6 -10 -10 -10 -13 -14 -14 -14 -11 -8 -7 -5 -3 -0 1 1 2 4 3 3 4 4 2 1 2 1 -0 3 6 6 4 4 6 4 -0 -1 1 2 4 5 7 8 8 7
6 8 7 7 11 12 10 10 13 13 9 8 4 -4 -7 -5 -1 4 9 11 13 13 10 9 9 10 11 11 13 20 25 25 24 21 15 9 3 0 3 6 4 5 8 8 4 1 3 5 5 6 8 6 3 2 4 6 6 5 5 4 4 4 6 5 5 7 11 12 11 10 11 11 10 10 10 8 5 4 3 3 5 6 6 6 7 7
10 12 9 7 10 13 12 13 16 17 16 18 17 12 9 7 4 3 6 9 13 16 14 12 12 10 11 10 9 13 18 19 19 20 17 12 8 5 5 5 4 5 9 12 12 12 14 16 15 13 14 14 12 10 7 4 4 5 7 7 8 11 12 14 15 16 15 15 14 11 11 13 15 14 13 12 11 9 8 8 8 7 6 6 6 7
7 11 12 11 12 16 17 13 11 12 12 12 15 18 18 16 12 8 7 7 12 18 18 15 16 18 18 16 12 9 11 12 13 15 15 13 11 9 9 7 4 1 -2 -4 -0 2 0 0 2 3 4 6 5 4 2 -0 1 6 9 10 10 9 8 9 9 6 -0 -3 -2 -0 2 7 12 13 12 10 9 10 10 8 7 7 8 9 8 8
7 7 9 8 6 9 14 10 3 5 9 8 8 10 12 15 15 12 10 8 7 4 -2 -5 -1 4 8 12 15 13 11 11 12 13 14 15 15 15 16 15 15 14 12 9 8 7 5 4 5 4 4 3 3 5 7 7 8 10 12 11 10 6 1 -2 -2 -0 1 2 5 9 10 8 7 7 7 8 9 11 10 8 6 7 7 8 7 7
14 11 9 11 11 10 10 7 3 4 7 8 10 11 11 11 12 10 10 10 6 -2 -7 -5 1 2 1 3 7 10 11 12 13 13 13 13 13 14 14 15 16 16 18 20 21 21 21 22 22 21 20 19 17 16 16 15 13 12 11 10 11 10 9 9 11 14 15 15 14 13 13 14 13 12 10 10 10 10 9 9 9 9 8 8 8 7
16 15 14 14 16 16 14 12 12 11 9 9 11 12 13 14 15 15 14 13 12 8 3 4 8 10 9 7 5 4 5 4 4 5 7 8 10 11 11 12 11 9 9 11 12 13 14 13 14 14 14 16 17 17 17 17 16 15 13 12 11 12 13 15 16 15 13 11 10 8 8 8 8 8 8 8 8 7 7 7 7 7 7 6 7 7
12 10 10 10 9 11 10 8 9 11 12 12 11 10 10 11 12 13 14 14 16 15 12 8 7 7 8 9 9 7 7 5 3 3 3 4 6 8 9 9 9 8 7 6 6 7 7 8 9 9 9 9 9 9 9 9 9 8 9 10 11 12 12 11 9 8 6 5 5 6 6 4 3 3 3 2 1 1 1 1 1 1 1 2 3 4
16 14 14 13 11 11 11 10 11 10 8 7 7 7 7 6 6 7 8 9 11 13 15 14 12 9 8 8 10 11 9 7 6 7 8 7 6 6 6 7 9 10 7 6 6 6 6 6 6 7 7 7 6 6 6 5 5 6 6 7 7 7 7 6 6 6 5 5 5 4 3 3 3 3 3 2 2 2 1 1 0 1 2 3 4 5
14 16 16 17 17 17 18 18 18 17 15 13 11 9 8 6 5 5 4 5 6 7 8 9 10 10 10 10 11 12 10 9 8 7 9 10 10 8 8 7 7 8 8 8 8 7 6 7 8 9 9 8 8 7 7 7 8 8 7 7 7 6 5 5 4 4 4 4 3 3 2 2 2 3 3 4 4 5 6 6 6 6 6 6 7 8
13 13 12 12 13 14 13 13 14 14 16 18 19 18 17 15 12 10 9 8 9 9 9 10 10 9 8 7 7 7 7 7 8 7 8 10 10 11 13 11 10 8 7 7 8 7 7 7 7 7 7 6 5 4 3 3 3 3 4 5 4 3 4 3 3 4 5 5 5 5 5 6 6 6 7 7 8 8 8 8 8 8 9 10 10 10
11 12 13 13 15 15 12 11 11 11 11 14 16 17 19 19 18 18 16 14 12 12 11 12 12 11 10 8 6 4 2 2 3 3 4 5 6 7 8 8 9 10 9 8 8 8 8 7 6 5 4 3 3 3 2 1 -0 -0 1 1 1 2 4 4 4 4 4 4 5 4 4 5 5 6 5 6 6 6 7 8 8 8 10 12 14 14
7 7 9 11 12 14 14 13 11 10 10 12 13 14 14 15 15 16 17 18 18 17 16 15 15 15 14 14 13 11 8 5 5 5 3 3 2 1 -0 -0 2 4 5 5 5 5 4 3 3 2 1 1 1 1 0 -0 -1 -0 0 1 2 4 4 5 6 6 6 6 6 6 6 6 6 6 6 6 5 6 7 10 11 11 11 12 15 18
Height
5724 5725 5727 5730 5732 5732 5732 5734 5736 5737 5737 5738 5739 5740 5742 5743 5745 5747 5749 5749 5749 5748 5750 5753 5756 5759 5761 5763 5764 5765 5765 5764 5762 5764 5766 5768 5770 5772 5773 5775 5777 5780 5782 5782 5782 5782 5782 5782 5782 5782 5782 5784 5786 5784 5783 5785 5785 5785 5786 5786 5787 5787 5788 5788 5788 5789 5789 5790 5791 5792 5793 5794 5795 5795 5796 5796 5796 5797 5798 5798 5799 5800 5801 5801 5801 5801
5721 5723 5726 5728 5728 5728 5729 5731 5733 5734 5735 5736 5736 5738 5739 5741 5744 5746 5747 5747 5746 5745 5747 5750 5752 5755 5757 5760 5762 5763 5763 5762 5761 5762 5764 5765 5768 5769 5771 5773 5776 5778 5779 5779 5779 5779 5779 5780 5780 5779 5779 5782 5783 5782 5782 5783 5783 5784 5785 5786 5786 5786 5786 5786 5786 5787 5788 5789 5790 5791 5792 5793 5793 5794 5794 5794 5794 5795 5796 5797 5797 5798 5799 5799 5799 5799
5720 5722 5724 5725 5725 5726 5727 5728 5730 5732 5732 5733 5734 5735 5737 5739 5743 5745 5744 5744 5743 5743 5746 5748 5749 5752 5755 5757 5760 5761 5761 5761 5760 5761 5763 5765 5766 5768 5769 5772 5775 5776 5776 5776 5776 5777 5777 5778 5778 5777 5777 5779 5780 5780 5781 5781 5781 5782 5784 5784 5784 5784 5783 5784 5784 5785 5786 5787 5788 5789 5790 5791 5791 5792 5792 5792 5793 5794 5795 5795 5796 5797 5798 5798 5798 5799
5719 5720 5721 5721 5722 5724 5725 5726 5728 5729 5730 5731 5732 5733 5735 5738 5740 5741 5741 5741 5741 5742 5744 5747 5748 5750 5752 5754 5757 5759 5759 5759 5759 5761 5763 5764 5765 5766 5769 5771 5773 5773 5773 5773 5774 5775 5775 5775 5775 5775 5775 5776 5777 5778 5779 5779 5779 5780 5781 5782 5782 5781 5781 5782 5783 5784 5785 5786 5787 5788 5788 5789 5789 5789 5790 5791 5791 5792 5793 5794 5795 5796 5797 5797 5798 5798
5716 5717 5718 5719 5720 5721 5722 5724 5725 5727 5728 5729 5730 5731 5734 5736 5737 5738 5738 5739 5740 5741 5744 5746 5746 5747 5749 5751 5754 5757 5757 5757 5758 5760 5761 5762 5763 5765 5767 5770 5770 5770 5770 5771 5772 5773 5774 5774 5773 5773 5774 5775 5775 5776 5777 5777 5777 5777 5778 5779 5779 5779 5780 5780 5781 5782 5783 5784 5785 5786 5786 5787 5787 5788 5788 5789 5790 5791 5792 5793 5794 5794 5795 5796 5796 5796
5714 5714 5716 5717 5718 5719 5720 5722 5723 5724 5725 5727 5728 5730 5732 5733 5734 5736 5737 5737 5738 5740 5742 5744 5744 5745 5746 5749 5752 5755 5755 5756 5757 5758 5759 5759 5760 5763 5765 5767 5766 5766 5768 5770 5771 5772 5773 5773 5772 5771 5772 5773 5772 5773 5774 5774 5774 5775 5775 5776 5777 5778 5778 5779 5780 5781 5782 5782 5783 5784 5784 5785 5785 5786 5786 5787 5788 5790 5790 5791 5792 5792 5793 5794 5794 5794
5711 5712 5714 5715 5716 5717 5718 5719 5720 5722 5723 5724 5726 5728 5729 5730 5732 5733 5734 5735 5736 5738 5739 5740 5742 5743 5745 5748 5751 5753 5753 5753 5754 5755 5756 5757 5759 5761 5762 5763 5764 5765 5766 5768 5770 5771 5771 5771 5770 5769 5770 5770 5770 5770 5771 5771 5772 5772 5773 5774 5775 5776 5777 5777 5778 5778 5779 5780 5781 5781 5782 5783 5783 5784 5785 5786 5787 5788 5789 5790 5790 5791 5791 5792 5792 5792
5709 5711 5712 5713 5714 5715 5716 5717 5718 5719 5721 5722 5724 5726 5727 5728 5730 5731 5732 5733 5735 5735 5736 5737 5740 5742 5744 5747 5749 5751 5751 5751 5752 5752 5753 5755 5758 5759 5759 5760 5762 5764 5765 5767 5767 5768 5769 5769 5767 5766 5767 5768 5768 5768 5768 5769 5769 5770 5771 5772 5774 5775 5775 5775 5775 5776 5777 5778 5778 5779 5780 5781 5782 5783 5784 5785 5786 5787 5787 5788 5789 5789 5790 5790 5790 5790
5707 5708 5710 5711 5712 5713 5714 5716 5716 5717 5718 5720 5722 5723 5725 5726 5727 5728 5729 5731 5733 5733 5734 5735 5737 5740 5743 5745 5747 5749 5750 5750 5749 5749 5751 5754 5756 5757 5758 5760 5761 5762 5764 5764 5765 5765 5766 5766 5765 5765 5765 5766 5767 5767 5767 5766 5766 5767 5769 5770 5771 5772 5772 5772 5773 5774 5775 5775 5776 5776 5778 5779 5780 5781 5782 5783 5784 5785 5785 5786 5787 5788 5788 5788 5788 5788
5705 5706 5707 5707 5709 5710 5712 5714 5715 5715 5716 5718 5719 5720 5722 5724 5726 5727 5728 5730 5731 5731 5733 5734 5735 5738 5741 5743 5745 5747 5748 5748 5748 5748 5749 5751 5753 5754 5756 5758 5760 5761 5762 5762 5763 5763 5764 5764 5764 5763 5763 5765 5765 5765 5765 5764 5764 5765 5766 5767 5769 5770 5770 5770 5771 5771 5772 5772 5773 5774 5775 5777 5778 5779 5780 5781 5782 5782 5783 5784 5785 5786 5787 5787 5787 5787
5703 5704 5704 5705 5706 5708 5710 5711 5712 5713 5714 5716 5717 5718 5720 5722 5724 5726 5727 5729 5728 5729 5731 5732 5733 5735 5738 5740 5743 5745 5745 5745 5745 5746 5747 5748 5750 5752 5754 5757 5758 5759 5760 5760 5760 5761 5761 5762 5762 5762 5762 5762 5763 5763 5763 5763 5763 5764 5764 5765 5767 5768 5768 5768 5769 5769 5769 5769 5771 5772 5773 5774 5775 5777 5778 5779 5779 5780 5781 5782 5783 5784 5785 5785 5785 5785
5701 5701 5702 5703 5704 5706 5707 5709 5711 5712 5713 5714 5715 5717 5719 5720 5722 5724 5725 5726 5726 5727 5730 5731 5733 5733 5735 5738 5740 5742 5742 5742 5743 5744 5745 5745 5747 5751 5753 5755 5756 5757 5758 5758 5758 5758 5758 5760 5760 5760 5760 5760 5761 5761 5762 5763 5763 5763 5763 5764 5765 5766 5766 5766 5766 5766 5767 5768 5769 5770 5771 5772 5773 5775 5776 5776 5777 5778 5779 5780 5781 5782 5783 5784 5783 5783
5699 5699 5700 5701 5703 5705 5706 5708 5710 5711 5712 5712 5714 5715 5717 5718 5720 5722 5723 5724 5724 5726 5729 5731 5732 5732 5733 5735 5737 5738 5739 5740 5740 5741 5742 5744 5747 5750 5752 5753 5754 5755 5755 5755 5756 5756 5756 5758 5758 5758 5759 5759 5759 5759 5760 5761 5762 5762 5762 5762 5763 5763 5764 5764 5765 5765 5766 5767 5768 5768 5769 5770 5772 5773 5774 5774 5775 5775 5776 5777 5778 5780 5781 5782 5782 5781
5696 5697 5698 5700 5702 5703 5705 5707 5708 5710 5711 5711 5712 5714 5715 5716 5718 5720 5721 5722 5723 5725 5728 5729 5730 5730 5731 5732 5733 5735 5736 5737 5738 5738 5740 5743 5746 5749 5750 5751 5751 5752 5753 5753 5754 5755 5756 5757 5757 5757 5757 5757 5758 5757 5758 5759 5761 5761 5761 5761 5761 5762 5762 5763 5764 5764 5765 5765 5766 5766 5767 5768 5769 5771 5772 5772 5772 5773 5774 5775 5776 5777 5779 5779 5780 5779
5694 5695 5697 5699 5701 5702 5704 5706 5707 5709 5709 5710 5711 5712 5713 5714 5716 5718 5719 5721 5722 5724 5726 5727 5728 5728 5728 5728 5730 5733 5735 5736 5737 5737 5739 5741 5743 5745 5746 5747 5748 5750 5750 5751 5752 5753 5755 5756 5756 5756 5756 5756 5756 5756 5757 5758 5759 5760 5760 5760 5760 5761 5761 5762 5763 5763 5763 5763 5764 5764 5765 5765 5767 5768 5769 5770 5770 5771 5771 5772 5773 5775 5776 5777 5777 5777
5692 5694 5696 5698 5700 5701 5703 5705 5706 5707 5708 5709 5709 5710 5711 5713 5715 5717 5718 5719 5720 5722 5724 5725 5725 5724 5725 5726 5728 5731 5733 5734 5735 5737 5739 5740 5741 5742 5742 5743 5746 5748 5748 5749 5750 5751 5753 5754 5754 5754 5755 5755 5755 5755 5756 5756 5757 5758 5758 5759 5759 5760 5760 5760 5761 5761 5761 5761 5761 5762 5762 5763 5764 5765 5766 5767 5767 5768 5768 5769 5770 5772 5773 5774 5774 5775
5689 5692 5695 5696 5697 5699 5701 5702 5704 5705 5706 5707 5708 5709 5710 5712 5714 5716 5717 5717 5719 5720 5722 5722 5722 5722 5723 5724 5726 5729 5731 5732 5734 5735 5737 5738 5739 5740 5740 5742 5744 5745 5746 5748 5749 5750 5750 5751 5752 5752 5753 5754 5754 5754 5754 5754 5755 5756 5756 5757 5757 5757 5757 5758 5758 5759 5759 5759 5759 5760 5760 5761 5762 5762 5763 5764 5765 5766 5766 5766 5767 5769 5770 5771 5771 5772
5688 5690 5692 5694 5695 5697 5698 5700 5701 5703 5704 5705 5707 5708 5709 5711 5712 5713 5715 5715 5717 5719 5719 5719 5720 5720 5721 5722 5724 5727 5729 5731 5732 5733 5734 5735 5736 5738 5739 5740 5741 5743 5745 5747 5747 5747 5748 5748 5749 5750 5751 5752 5752 5753 5753 5753 5753 5754 5754 5755 5755 5755 5755 5755 5755 5756 5756 5757 5757 5758 5758 5758 5759 5760 5761 5762 5763 5763 5763 5763 5765 5767 5768 5769 5769 5769
5685 5688 5690 5691 5693 5695 5696 5697 5698 5699 5701 5703 5704 5705 5707 5708 5709 5711 5712 5713 5714 5716 5716 5717 5718 5718 5718 5719 5721 5724 5726 5728 5730 5731 5731 5732 5733 5735 5736 5738 5740 5742 5743 5744 5745 5745 5745 5746 5747 5748 5749 5749 5750 5750 5751 5751 5751 5752 5752 5753 5753 5753 5753 5753 5753 5754 5755 5755 5755 5756 5756 5756 5756 5758 5759 5760 5761 5762 5760 5760 5762 5764 5766 5767 5767 5767
5682 5685 5687 5689 5690 5692 5694 5695 5696 5696 5698 5700 5701 5702 5704 5705 5707 5708 5710 5711 5712 5714 5715 5715 5715 5715 5715 5716 5719 5722 5724 5726 5728 5728 5729 5729 5731 5733 5735 5737 5739 5739 5740 5741 5741 5742 5742 5742 5743 5745 5746 5747 5747 5748 5748 5748 5749 5749 5750 5751 5750 5750 5751 5751 5752 5753 5753 5753 5753 5753 5753 5754 5755 5757 5758 5759 5760 5759 5758 5758 5759 5762 5763 5764 5764 5764
5680 5682 5685 5687 5688 5690 5691 5692 5693 5693 5695 5697 5698 5699 5701 5702 5703 5705 5707 5709 5710 5711 5713 5713 5713 5713 5713 5714 5716 5719 5721 5723 5724 5725 5726 5727 5729 5731 5733 5735 5736 5736 5737 5738 5738 5738 5739 5739 5740 5741 5742 5743 5744 5745 5746 5746 5746 5747 5748 5748 5747 5748 5749 5750 5751 5750 5750 5750 5750 5750 5751 5752 5754 5755 5756 5757 5758 5757 5756 5756 5758 5760 5761 5761 5762 5762
5677 5679 5682 5685 5686 5688 5689 5689 5689 5691 5693 5695 5696 5697 5699 5700 5701 5703 5705 5706 5707 5709 5710 5711 5712 5712 5712 5712 5713 5715 5717 5720 5720 5721 5722 5724 5726 5728 5730 5731 5732 5733 5734 5735 5735 5736 5737 5738 5739 5739 5739 5740 5741 5742 5743 5744 5744 5745 5745 5744 5745 5747 5749 5749 5747 5746 5746 5747 5747 5747 5748 5749 5751 5752 5754 5755 5756 5755 5754 5755 5757 5758 5759 5759 5759 5759
5674 5676 5679 5683 5685 5685 5685 5685 5687 5689 5691 5692 5693 5694 5697 5698 5699 5701 5702 5703 5705 5706 5707 5709 5710 5710 5710 5711 5711 5712 5715 5717 5717 5717 5718 5721 5723 5725 5727 5728 5729 5730 5731 5731 5732 5733 5733 5735 5736 5737 5737 5737 5738 5739 5741 5743 5743 5743 5743 5743 5744 5746 5748 5747 5745 5744 5744 5745 5745 5744 5745 5747 5750 5752 5753 5754 5755 5754 5753 5754 5756 5757 5757 5757 5757 5757
5671 5673 5676 5680 5683 5683 5682 5682 5684 5687 5689 5690 5691 5692 5694 5696 5697 5699 5700 5702 5703 5704 5705 5707 5707 5707 5708 5710 5710 5711 5713 5715 5716 5715 5715 5718 5721 5723 5724 5725 5727 5728 5728 5728 5730 5730 5730 5730 5731 5733 5735 5735 5736 5737 5739 5741 5741 5742 5743 5742 5742 5745 5747 5745 5745 5745 5746 5746 5746 5746 5746 5748 5750 5750 5751 5752 5752 5751 5751 5752 5753 5754 5755 5755 5755 5756
5669 5671 5673 5676 5679 5680 5680 5680 5680 5683 5687 5688 5688 5690 5691 5693 5694 5696 5698 5700 5701 5702 5703 5704 5705 5705 5706 5708 5709 5711 5712 5713 5714 5714 5714 5716 5718 5720 5722 5723 5725 5726 5726 5727 5727 5728 5728 5728 5729 5730 5732 5733 5734 5735 5737 5738 5738 5739 5740 5740 5740 5742 5743 5742 5742 5744 5745 5746 5746 5745 5745 5746 5747 5748 5748 5749 5748 5747 5748 5749 5750 5751 5751 5752 5752 5753
5666 5668 5670 5672 5675 5677 5678 5677 5678 5680 5684 5685 5686 5687 5688 5690 5692 5693 5696 5697 5698 5699 5700 5701 5701 5703 5704 5706 5707 5709 5711 5712 5713 5713 5713 5713 5715 5717 5719 5721 5723 5724 5724 5725 5725 5725 5726 5727 5727 5728 5730 5731 5732 5733 5734 5735 5735 5735 5736 5736 5737 5739 5738 5738 5740 5741 5742 5743 5742 5742 5743 5744 5745 5745 5745 5746 5746 5746 5746 5747 5747 5748 5748 5749 5750 5750
5663 5664 5667 5669 5671 5673 5674 5675 5676 5677 5680 5682 5683 5685 5686 5687 5689 5691 5693 5695 5696 5697 5697 5698 5699 5701 5702 5703 5705 5707 5709 5710 5711 5712 5712 5712 5714 5715 5716 5718 5720 5722 5722 5722 5722 5723 5723 5725 5726 5726 5727 5728 5729 5730 5732 5732 5732 5733 5732 5733 5735 5736 5736 5737 5737 5738 5739 5740 5740 5740 5740 5741 5743 5743 5743 5743 5744 5744 5745 5745 5746 5746 5746 5747 5748 5749
5660 5662 5663 5665 5667 5669 5670 5672 5672 5673 5675 5678 5679 5682 5683 5684 5686 5688 5690 5692 5693 5694 5694 5695 5697 5698 5699 5700 5702 5704 5706 5707 5708 5710 5711 5712 5713 5714 5714 5716 5717 5718 5719 5719 5719 5719 5720 5721 5723 5723 5724 5725 5727 5728 5729 5730 5730 5731 5731 5731 5733 5734 5734 5735 5735 5736 5737 5738 5738 5738 5739 5739 5740 5741 5741 5742 5742 5743 5744 5744 5745 5745 5745 5746 5746 5747
5657 5659 5660 5661 5663 5665 5667 5668 5669 5669 5671 5673 5675 5678 5680 5682 5683 5685 5687 5688 5690 5691 5691 5693 5695 5696 5697 5698 5699 5701 5703 5704 5705 5707 5708 5709 5710 5711 5712 5713 5714 5715 5715 5715 5715 5715 5716 5717 5719 5721 5722 5723 5724 5725 5726 5727 5728 5729 5729 5730 5731 5732 5733 5733 5734 5735 5736 5736 5736 5737 5737 5737 5738 5738 5739 5740 5741 5741 5742 5743 5743 5744 5744 5744 5744 5745
5655 5656 5656 5658 5660 5662 5664 5665 5666 5667 5668 5669 5671 5674 5677 5679 5681 5683 5685 5686 5687 5687 5688 5690 5692 5693 5695 5696 5697 5698 5699 5701 5703 5704 5704 5705 5706 5708 5709 5710 5712 5713 5713 5711 5712 5713 5714 5715 5717 5719 5720 5721 5722 5723 5723 5724 5725 5726 5727 5728 5729 5730 5731 5731 5732 5733 5734 5734 5735 5735 5735 5735 5736 5737 5738 5739 5740 5740 5740 5741 5741 5742 5742 5742 5742 5743
5652 5653 5654 5655 5657 5659 5661 5663 5663 5664 5665 5667 5668 5671 5673 5676 5679 5681 5683 5684 5684 5685 5685 5687 5688 5690 5692 5694 5695 5695 5696 5698 5699 5700 5701 5702 5703 5704 5705 5707 5709 5710 5710 5709 5710 5711 5712 5714 5716 5717 5718 5718 5719 5720 5721 5721 5722 5722 5723 5725 5726 5727 5728 5729 5730 5731 5732 5733 5733 5734 5734 5734 5735 5735 5736 5737 5738 5738 5739 5739 5739 5739 5739 5739 5739 5740
5649 5651 5652 5653 5654 5655 5657 5659 5659 5660 5662 5664 5666 5667 5670 5673 5676 5678 5679 5681 5682 5683 5683 5684 5686 5687 5689 5690 5692 5693 5694 5694 5696 5697 5697 5699 5700 5701 5702 5704 5706 5708 5708 5708 5709 5710 5711 5712 5713 5715 5715 5715 5716 5717 5718 5718 5719 5719 5720 5721 5723 5724 5725 5726 5728 5729 5730 5731 5731 5732 5732 5733 5734 5734 5734 5735 5735 5736 5736 5736 5736 5736 5736 5736 5737 5737
5647 5648 5649 5651 5652 5652 5654 5655 5655 5657 5660 5661 5662 5664 5667 5669 5672 5674 5676 5678 5680 5681 5681 5682 5684 5685 5686 5688 5689 5690 5691 5691 5692 5693 5694 5695 5697 5698 5699 5701 5703 5705 5706 5707 5708 5708 5709 5710 5710 5712 5712 5712 5713 5714 5714 5714 5715 5716 5717 5718 5719 5720 5721 5722 5724 5725 5726 5727 5728 5729 5729 5731 5732 5732 5732 5732 5733 5733 5733 5733 5733 5733 5733 5734 5735 5735
5645 5646 5647 5648 5650 5651 5652 5653 5654 5656 5657 5658 5660 5662 5664 5666 5669 5671 5673 5674 5676 5677 5678 5679 5681 5682 5683 5686 5686 5687 5688 5688 5689 5690 5691 5692 5694 5695 5696 5698 5700 5701 5702 5703 5704 5705 5706 5707 5707 5708 5708 5708 5709 5711 5711 5712 5713 5714 5714 5715 5716 5717 5718 5719 5720 5721 5722 5723 5724 5725 5726 5727 5728 5728 5729 5729 5730 5730 5730 5731 5731 5731 5731 5731 5732 5732
5644 5645 5645 5646 5647 5649 5650 5651 5652 5653 5654 5656 5658 5660 5661 5663 5665 5667 5669 5670 5671 5673 5674 5675 5677 5679 5680 5683 5683 5683 5684 5685 5686 5687 5688 5689 5690 5692 5693 5694 5695 5696 5697 5698 5700 5701 5701 5703 5703 5704 5705 5705 5706 5707 5708 5709 5710 5711 5711 5712 5713 5714 5715 5716 5717 5718 5719 5720 5720 5721 5722 5722 5723 5723 5724 5725 5725 5726 5727 5727 5728 5729 5729 5729 5728 5728
5641 5643 5643 5644 5645 5647 5648 5649 5650 5651 5652 5653 5655 5656 5658 5660 5662 5663 5665 5666 5667 5669 5670 5671 5674 5675 5677 5679 5680 5680 5680 5682 5683 5684 5685 5686 5687 5688 5689 5690 5691 5693 5693 5694 5695 5696 5696 5698 5698 5699 5701 5702 5703 5704 5704 5705 5706 5707 5707 5709 5710 5710 5711 5712 5713 5714 5715 5716 5717 5717 5717 5717 5718 5719 5720 5720 5721 5721 5722 5723 5724 5725 5725 5725 5724 5724
5638 5640 5641 5642 5643 5644 5645 5647 5648 5649 5649 5651 5652 5653 5655 5657 5659 5660 5661 5662 5664 5665 5666 5668 5670 5671 5673 5675 5676 5677 5677 5678 5680 5681 5682 5683 5685 5685 5686 5688 5689 5690 5691 5691 5691 5691 5692 5693 5693 5694 5697 5699 5700 5701 5700 5700 5701 5702 5703 5704 5705 5706 5707 5708 5709 5709 5710 5711 5712 5713 5713 5713 5714 5716 5716 5716 5717 5717 5718 5718 5719 5720 5720 5720 5720 5720
5636 5637 5639 5640 5640 5642 5643 5644 5645 5647 5647 5648 5650 5651 5653 5654 5655 5656 5657 5659 5661 5662 5664 5665 5666 5667 5668 5670 5671 5673 5674 5675 5677 5678 5679 5681 5682 5683 5684 5684 5686 5687 5687 5687 5687 5687 5687 5687 5688 5690 5692 5694 5696 5696 5697 5697 5697 5698 5698 5699 5700 5701 5702 5704 5704 5705 5705 5705 5706 5707 5709 5709 5710 5711 5711 5712 5712 5713 5714 5714 5715 5715 5715 5715 5715 5715
5633 5634 5635 5637 5638 5639 5640 5641 5643 5644 5645 5645 5647 5649 5651 5651 5652 5653 5654 5656 5658 5660 5661 5662 5663 5663 5664 5665 5666 5668 5670 5671 5672 5674 5676 5677 5678 5679 5680 5680 5682 5683 5684 5684 5684 5684 5684 5684 5685 5687 5688 5690 5691 5692 5692 5693 5694 5694 5694 5695 5696 5696 5698 5699 5700 5700 5701 5701 5701 5702 5703 5704 5704 5705 5706 5706 5707 5708 5708 5709 5710 5710 5711 5711 5710 5710
5630 5631 5632 5634 5636 5637 5638 5639 5640 5641 5641 5643 5645 5646 5647 5648 5649 5650 5651 5653 5656 5657 5658 5659 5659 5660 5661 5662 5662 5664 5666 5667 5668 5669 5671 5672 5673 5674 5675 5676 5677 5678 5679 5680 5681 5681 5681 5681 5682 5683 5684 5685 5686 5687 5688 5689 5690 5690 5690 5691 5692 5692 5693 5694 5695 5695 5695 5696 5696 5696 5696 5697 5697 5698 5698 5699 5700 5700 5701 5702 5702 5703 5703 5704 5704 5704
5628 5629 5630 5631 5633 5634 5635 5636 5637 5637 5638 5639 5641 5642 5643 5645 5646 5647 5648 5650 5652 5653 5655 5655 5656 5656 5657 5658 5659 5660 5661 5662 5662 5664 5665 5666 5667 5668 5670 5671 5672 5673 5674 5675 5676 5677 5677 5676 5677 5678 5679 5680 5680 5681 5683 5684 5685 5686 5686 5687 5687 5688 5688 5689 5689 5690 5690 5690 5691 5691 5691 5691 5691 5691 5691 5692 5692 5692 5693 5693 5694 5694 5695 5695 5696 5696
5625 5627 5628 5629 5630 5631 5632 5633 5634 5634 5635 5636 5637 5638 5640 5641 5643 5644 5645 5646 5648 5649 5651 5652 5652 5653 5654 5654 5654 5655 5656 5657 5658 5659 5660 5660 5661 5662 5664 5665 5667 5667 5668 5670 5671 5672 5672 5672 5673 5673 5674 5675 5676 5677 5678 5679 5680 5680 5681 5681 5682 5683 5683 5684 5684 5685 5685 5685 5686 5686 5686 5686 5686 5686 5686 5686 5686 5686 5686 5686 5686 5686 5686 5686 5687 5687
5623 5625 5626 5627 5627 5628 5629 5630 5631 5631 5632 5633 5634 5635 5636 5638 5639 5640 5642 5643 5644 5645 5647 5648 5649 5650 5650 5650 5650 5651 5651 5652 5654 5655 5655 5656 5657 5657 5658 5660 5661 5662 5663 5664 5665 5666 5666 5667 5668 5669 5669 5670 5671 5672 5673 5674 5674 5674 5675 5675 5676 5677 5678 5679 5679 5679 5679 5679 5679 5680 5680 5680 5680 5680 5680 5680 5680 5680 5680 5679 5679 5679 5679 5679 5679 5679
5621 5622 5623 5624 5625 5626 5626 5626 5627 5627 5629 5630 5631 5632 5633 5634 5635 5636 5637 5639 5640 5641 5642 5643 5645 5645 5646 5646 5647 5647 5648 5649 5650 5651 5652 5653 5653 5653 5654 5655 5657 5657 5658 5659 5660 5660 5661 5661 5662 5663 5664 5665 5666 5667 5667 5668 5669 5669 5669 5669 5670 5671 5672 5672 5673 5673 5673 5673 5673 5673 5673 5674 5674 5674 5674 5674 5674 5674 5673 5673 5673 5673 5672 5672 5673 5673
5619 5620 5620 5621 5621 5622 5622 5622 5623 5624 5625 5626 5627 5628 5629 5630 5631 5632 5633 5634 5635 5637 5638 5639 5640 5640 5641 5642 5643 5644 5645 5646 5647 5648 5649 5649 5650 5650 5650 5652 5653 5653 5654 5654 5654 5655 5655 5656 5657 5658 5658 5659 5661 5662 5662 5662 5662 5663 5663 5664 5665 5666 5666 5667 5667 5666 5666 5666 5667 5667 5667 5667 5667 5667 5667 5667 5667 5667 5666 5666 5666 5666 5665 5665 5665 5665
5617 5617 5617 5617 5617 5618 5618 5619 5620 5621 5622 5622 5623 5624 5626 5626 5627 5628 5628 5629 5630 5632 5633 5634 5635 5635 5636 5638 5639 5640 5641 5642 5643 5644 5644 5645 5646 5646 5646 5648 5649 5650 5649 5649 5649 5650 5651 5652 5652 5653 5653 5655 5656 5656 5656 5656 5657 5657 5658 5659 5660 5660 5661 5660 5660 5660 5660 5660 5660 5660 5660 5660 5660 5660 5660 5660 5660 5660 5659 5659 5659 5658 5658 5657 5657 5656
5614 5613 5613 5614 5614 5614 5615 5615 5616 5616 5617 5618 5619 5620 5622 5623 5623 5624 5624 5625 5626 5627 5628 5629 5630 5630 5631 5632 5634 5635 5637 5638 5639 5639 5639 5640 5640 5641 5641 5643 5644 5645 5645 5644 5645 5645 5647 5647 5648 5648 5649 5650 5650 5650 5651 5651 5651 5652 5653 5653 5654 5654 5654 5654 5654 5653 5653 5654 5654 5654 5653 5653 5653 5653 5653 5652 5652 5652 5651 5651 5651 5650 5649 5648 5647 5647
5610 5611 5611 5610 5610 5611 5611 5612 5612 5612 5612 5614 5614 5615 5616 5617 5618 5619 5620 5620 5621 5622 5623 5624 5625 5625 5626 5627 5628 5630 5631 5632 5633 5634 5634 5634 5635 5636 5637 5638 5639 5639 5640 5640 5640 5641 5642 5642 5643 5643 5644 5644 5645 5645 5645 5645 5646 5647 5647 5647 5647 5647 5647 5647 5647 5647 5647 5647 5646 5646 5646 5646 5645 5645 5645 5644 5644 5643 5642 5642 5641 5641 5640 5639 5638 5637
5606 5607 5607 5607 5607 5607 5608 5608 5607 5607 5608 5609 5610 5610 5611 5612 5613 5614 5615 5615 5616 5617 5618 5619 5620 5621 5621 5622 5622 5623 5624 5626 5627 5628 5628 5628 5630 5631 5632 5632 5633 5634 5635 5635 5635 5635 5636 5637 5637 5638 5638 5639 5639 5639 5639 5640 5641 5641 5641 5641 5641 5641 5641 5641 5641 5640 5640 5640 5640 5639 5639 5639 5638 5638 5637 5636 5635 5634 5633 5633 5632 5631 5630 5629 5628 5627
5603 5603 5603 5602 5603 5603 5604 5604 5603 5603 5604 5605 5605 5606 5606 5607 5607 5608 5609 5609 5610 5611 5612 5614 5615 5615 5616 5616 5617 5618 5619 5620 5621 5621 5621 5622 5623 5625 5626 5627 5628 5629 5629 5629 5629 5630 5630 5631 5632 5632 5632 5633 5633 5633 5634 5634 5634 5635 5635 5635 5635 5634 5634 5634 5633 5633 5633 5632 5632 5632 5631 5631 5630 5630 5629 5628 5627 5625 5624 5622 5622 5621 5619 5618 5616 5615
5600 5600 5599 5599 5598 5599 5599 5599 5599 5599 5600 5600 5600 5601 5601 5602 5602 5603 5603 5604 5604 5605 5606 5607 5609 5610 5611 5611 5612 5613 5613 5614 5614 5614 5614 5615 5616 5618 5620 5622 5623 5624 5623 5623 5622 5623 5624 5625 5625 5626 5626 5627 5627 5627 5627 5627 5627 5628 5628 5627 5627 5627 5626 5626 5625 5625 5625 5624 5624 5623 5623 5622 5621 5620 5619 5618 5617 5616 5614 5612 5610 5610 5609 5608 5605 5603